Overview Statistics Trail Chart Weather Telemetry Raw packets
 

This is the latest recevied weather packets stored in our database for station/object K8RRT. If no packets are shown the sender has not sent any weather packets the latest 10 day(s).

<< 71 72 73 74 75 76 77 >>
Time Temp. Humidity Pressure Rain* Wind** Luminosity Snow
1788103665 29.44° C 77% 1017.4 hPa 0 mm - 799 W/m² -
1788103359 29.44° C 77% 1017.6 hPa 0 mm - 791 W/m² -
1788103054 28.89° C 77% 1017.6 hPa 0 mm - 763 W/m² -
1788102754 28.89° C 77% 1017.5 hPa 0 mm - 645 W/m² -
1788102449 28.33° C 79% 1017.7 hPa 0 mm - 569 W/m² -
1788102148 27.78° C 79% 1017.2 hPa 0 mm - 661 W/m² -
1788101844 28.33° C 77% 1017.7 hPa 0 mm - 699 W/m² -
1788101538 28.33° C 78% 1017.3 hPa 0 mm - 672 W/m² -
1788101233 28.33° C 77% 1017.4 hPa 0 mm - 652 W/m² -
1788100929 27.78° C 79% 1017.5 hPa 0 mm - 662 W/m² -
1788100625 27.78° C 78% 1017.3 hPa 0 mm - 620 W/m² -
1788100323 27.78° C 78% 1017.2 hPa 0 mm - 520 W/m² -
1788100018 27.78° C 79% 1017.1 hPa 0 mm - 550 W/m² -
1788099713 27.22° C 79% 1017.2 hPa 0 mm - 568 W/m² -
1788099409 27.22° C 80% 1017.2 hPa 0 mm - 552 W/m² -
1788099103 27.22° C 81% 1017.4 hPa 0 mm - 417 W/m² -
1788098798 26.67° C 80% 1017.1 hPa 0 mm - 524 W/m² -
1788098493 26.67° C 81% 1017.1 hPa 0 mm - 504 W/m² -
1788098188 26.67° C 81% 1017.2 hPa 0 mm - 547 W/m² -
1788097883 26.11° C 81% 1017 hPa 0 mm - 494 W/m² -
1788097579 26.11° C 81% 1017.1 hPa 0 mm - 414 W/m² -
1788097274 26.67° C 82% 1017 hPa 0 mm - 364 W/m² -
1788096969 26.67° C 82% 1017 hPa 0 mm - 345 W/m² -
1788096665 26.11° C 83% 1017.1 hPa 0 mm - 315 W/m² -
1788096361 26.11° C 83% 1016.9 hPa 0 mm - 306 W/m² -

* Rain latest hour (hover to see other rain measurements)
** Current wind speed in m/s (hover to see current wind gust speed)